TimeCST,TemperatureF,Dew PointF,Humidity,Sea Level PressureIn,VisibilityMPH,Wind Direction,Wind SpeedMPH,Gust SpeedMPH,PrecipitationIn,Events,Conditions,WindDirDegrees,DateUTC
12:56 AM,35.1,33.1,92,29.24,9.0,East,19.6,-,0.00,Rain,Small Hail,80,2012-02-29 06:56:00
1:01 AM,33.8,33.8,100,29.20,8.0,East,20.7,29.9,0.00,Rain,Light Rain,80,2012-02-29 07:01:00
1:39 AM,33.8,33.8,100,29.19,7.0,East,13.8,-,0.02,Rain,Light Rain,80,2012-02-29 07:39:00
1:56 AM,34.0,33.1,96,29.22,6.0,East,15.0,23.0,0.02,,Overcast,80,2012-02-29 07:56:00
2:30 AM,33.8,33.8,100,29.17,2.5,ENE,11.5,-,0.00,,Light Drizzle,60,2012-02-29 08:30:00
2:56 AM,34.0,33.1,96,29.19,3.0,NE,11.5,21.9,0.00,,Light Drizzle,40,2012-02-29 08:56:00
3:56 AM,34.0,33.1,96,29.19,5.0,NE,10.4,-,0.01,Rain,Light Rain,50,2012-02-29 09:56:00
4:00 AM,33.8,33.8,100,29.15,5.0,NE,9.2,-,0.00,Rain,Light Rain,40,2012-02-29 10:00:00
4:20 AM,33.8,32.0,93,29.16,6.0,North,6.9,-,0.01,Rain,Light Rain,350,2012-02-29 10:20:00
4:29 AM,33.8,32.0,93,29.17,4.0,NNW,9.2,-,0.01,Rain,Light Rain,330,2012-02-29 10:29:00
4:36 AM,33.8,32.0,93,29.18,3.0,NNW,9.2,-,0.01,Rain,Light Rain,340,2012-02-29 10:36:00
4:56 AM,33.1,32.0,96,29.22,3.0,NNW,9.2,-,0.02,Snow,Light Snow,330,2012-02-29 10:56:00
5:00 AM,33.8,32.0,93,29.18,4.0,NNW,11.5,-,0.00,Snow,Light Snow,330,2012-02-29 11:00:00
5:40 AM,33.8,30.2,87,29.20,6.0,NW,15.0,-,0.00,Snow,Light Snow,320,2012-02-29 11:40:00
5:50 AM,33.8,30.2,87,29.21,4.0,NW,15.0,-,0.00,Snow,Light Snow,320,2012-02-29 11:50:00
5:56 AM,33.1,30.9,92,29.25,2.5,NW,17.3,-,0.00,Snow,Light Snow,320,2012-02-29 11:56:00
6:04 AM,33.8,30.2,87,29.21,1.8,NW,16.1,-,0.00,Snow,Light Snow,320,2012-02-29 12:04:00
6:13 AM,33.8,30.2,87,29.22,2.0,NW,18.4,-,0.00,Snow,Light Snow,320,2012-02-29 12:13:00
6:22 AM,33.8,30.2,87,29.22,3.0,NW,20.7,26.5,0.01,Snow,Light Snow,320,2012-02-29 12:22:00
6:28 AM,33.8,30.2,87,29.23,1.8,NW,17.3,26.5,0.01,Snow,Light Snow,320,2012-02-29 12:28:00
6:48 AM,33.8,30.2,87,29.24,0.8,NW,18.4,25.3,0.01,Snow,Light Snow,320,2012-02-29 12:48:00
6:56 AM,32.0,30.9,96,29.29,0.8,NW,18.4,26.5,0.01,Snow,Light Snow,320,2012-02-29 12:56:00
7:00 AM,32.0,30.2,93,29.25,1.0,NW,18.4,-,0.00,Snow,Light Snow,320,2012-02-29 13:00:00
7:30 AM,32.0,30.2,93,29.27,1.0,NW,20.7,27.6,0.01,Snow,Light Snow,320,2012-02-29 13:30:00
7:34 AM,32.0,30.2,93,29.27,1.0,NW,18.4,27.6,0.01,Snow,Light Snow,320,2012-02-29 13:34:00
7:44 AM,32.0,28.4,87,29.28,2.5,NNW,25.3,33.4,0.01,Snow,Light Snow,330,2012-02-29 13:44:00
7:47 AM,32.0,28.4,87,29.28,3.0,NNW,23.0,33.4,0.01,Snow,Light Snow,330,2012-02-29 13:47:00
7:56 AM,30.9,28.0,89,29.33,5.0,NW,25.3,35.7,0.01,Snow,Light Snow,320,2012-02-29 13:56:00
8:56 AM,30.9,27.0,85,29.38,10.0,NNW,20.7,27.6,0.00,,Overcast,330,2012-02-29 14:56:00
9:56 AM,30.9,27.0,85,29.43,10.0,NW,16.1,25.3,N/A,,Overcast,320,2012-02-29 15:56:00
10:29 AM,30.2,26.6,86,29.42,10.0,NW,19.6,27.6,N/A,,Overcast,320,2012-02-29 16:29:00
10:56 AM,30.9,27.0,85,29.49,10.0,NW,20.7,-,N/A,,Overcast,320,2012-02-29 16:56:00
11:56 AM,30.9,27.0,85,29.53,10.0,NW,21.9,29.9,N/A,,Overcast,310,2012-02-29 17:56:00
12:34 PM,30.2,26.6,86,29.51,10.0,WNW,21.9,-,N/A,,Overcast,300,2012-02-29 18:34:00
12:56 PM,30.9,26.1,82,29.56,10.0,WNW,23.0,31.1,N/A,,Overcast,300,2012-02-29 18:56:00
1:56 PM,30.9,27.0,85,29.59,10.0,NW,25.3,34.5,N/A,,Overcast,310,2012-02-29 19:56:00
2:56 PM,30.9,27.0,85,29.63,10.0,NW,23.0,33.4,N/A,,Overcast,310,2012-02-29 20:56:00
3:56 PM,30.0,26.1,85,29.67,10.0,NW,23.0,31.1,N/A,,Overcast,310,2012-02-29 21:56:00
4:56 PM,30.0,26.1,85,29.72,10.0,NW,18.4,25.3,N/A,,Overcast,310,2012-02-29 22:56:00
5:56 PM,28.9,25.0,85,29.77,10.0,WNW,11.5,25.3,N/A,,Overcast,300,2012-02-29 23:56:00
6:56 PM,28.0,24.1,85,29.80,10.0,NW,13.8,23.0,N/A,,Overcast,310,2012-03-01 00:56:00
7:56 PM,28.0,24.1,85,29.82,10.0,WNW,16.1,-,N/A,,Overcast,300,2012-03-01 01:56:00
8:56 PM,28.0,24.1,85,29.83,10.0,WNW,13.8,21.9,N/A,,Overcast,300,2012-03-01 02:56:00
9:56 PM,27.0,23.0,85,29.84,10.0,NW,12.7,-,N/A,,Overcast,310,2012-03-01 03:56:00
10:56 PM,27.0,23.0,85,29.84,10.0,WNW,9.2,-,N/A,,Overcast,300,2012-03-01 04:56:00
11:56 PM,27.0,23.0,85,29.85,10.0,NW,10.4,-,N/A,,Overcast,310,2012-03-01 05:56:00